DK4ARL Weather Reports


time (UTC)temp
F
wind
direction
speed
knots
gust
knots
rain 1hr
in
rain 24hr
in
rain mn
in
humidity
%
barometer
mb
20260506043740 49 0.0 0.0 0.00 0.09 0.00 970.5
20260506042259 49 0.0 0.0 0.00 0.09 0.00 970.5
20260506040832 49 0.0 0.0 0.00 0.09 0.00 970.6
20260506033918 50 0.0 0.0 0.00 0.09 0.00 970.6
20260506032443 49 0.0 0.0 0.00 0.09 0.00 970.7
20260506025527 49 0.0 0.0 0.00 0.09 0.00 970.9
20260506022610 50 0.0 0.0 0.00 0.09 0.00 971.1
20260506021131 51 0.0 0.0 0.00 0.09 0.00 971.1
20260506014214 50 0.0 0.0 0.00 0.09 0.00 971.1
20260506011255 52 0.0 0.0 0.00 0.09 0.00 971.2
20260506005816 52 0.0 0.0 0.00 0.09 0.00 971.3
20260506004337 52 0.0 0.0 0.00 0.09 0.00 971.4
20260506002857 52 0.0 0.0 0.00 0.09 0.00 971.5
20260506001417 53 0.0 0.0 0.00 0.09 0.00 971.6
20260505235938 53 0.0 0.0 0.00 0.09 0.00 971.7
20260505234457 54 0.0 0.0 0.00 0.09 0.00 971.7
20260505233026 54 0.0 0.0 0.00 0.09 0.00 971.6
20260505231545 54 0.0 0.0 0.00 0.09 0.00 971.6
20260505230105 54 0.0 0.0 0.00 0.09 0.00 971.6
20260505224624 54 0.0 0.0 0.00 0.09 0.00 971.6
20260505223144 54 0.0 0.0 0.00 0.09 0.00 971.6
20260505221703 55 0.0 0.0 0.00 0.09 0.00 971.6
20260505220221 55 0.0 0.0 0.00 0.09 0.00 971.6
20260505214739 55 0.0 0.0 0.00 0.09 0.00 971.6
20260505213257 55 0.0 0.0 0.00 0.09 0.00 971.5
20260505211815 55 0.0 0.0 0.00 0.09 0.00 971.5
20260505210333 55 0.0 0.0 0.00 0.09 0.00 971.4
20260505204850 55 0.0 0.0 0.00 0.09 0.00 971.3
20260505203408 55 0.0 0.0 0.00 0.09 0.00 971.2
20260505201925 55 0.0 0.0 0.00 0.09 0.00 971.1
20260505200442 55 0.0 0.0 0.00 0.09 0.00 971.0
20260505194958 55 0.0 0.0 0.00 0.09 0.00 970.9
20260505193514 55 0.0 0.0 0.00 0.09 0.00 970.8
20260505192029 56 0.0 0.0 0.00 0.09 0.00 970.8
20260505190543 57 0.0 0.0 0.00 0.09 0.00 970.8
20260505185056 57 0.0 0.0 0.02 0.09 0.00 970.8
20260505183611 58 0.0 0.0 0.01 0.08 0.00 970.8
20260505182123 58 0.0 0.0 0.01 0.08 0.00 970.8
20260505180640 59 0.0 0.0 0.00 0.08 0.00 970.9
20260505175152 59 0.0 0.0 0.00 0.07 0.00 970.9
20260505173702 60 0.0 0.0 0.00 0.07 0.00 970.8
20260505172212 61 0.0 0.0 0.00 0.07 0.00 970.7
20260505170721 62 0.0 0.0 0.00 0.07 0.00 970.7
20260505160753 63 0.0 0.0 0.00 0.06 0.00 971.1
20260505152317 61 0.0 0.0 0.00 0.06 0.00 971.4
20260505150825 60 0.0 0.0 0.00 0.06 0.00 971.5
20260505123843 70 0.0 0.0 0.00 0.00 0.00 970.7
20260505122334 70 0.0 0.0 0.00 0.00 0.00 970.8
20260505115315 71 0.0 0.0 0.00 0.00 0.00 970.9
20260505113804 71 0.0 0.0 0.00 0.00 0.00 971.0
20260505112251 72 0.0 0.0 0.00 0.00 0.00 971.1
20260505110738 71 0.0 0.0 0.00 0.00 0.00 971.2
20260505102156 70 0.0 0.0 0.00 0.00 0.00 971.6
20260505100643 76 0.0 0.0 0.00 0.00 0.00 971.7
20260505095131 75 0.0 0.0 0.00 0.00 0.00 971.8
20260505093621 72 0.0 0.0 0.00 0.00 0.00 972.0
20260505092111 75 0.0 0.0 0.00 0.00 0.00 972.1
20260505090603 75 0.0 0.0 0.00 0.00 0.00 972.2
20260505085057 77 0.0 0.0 0.00 0.00 0.00 972.3
20260505083552 72 0.0 0.0 0.00 0.00 0.00 972.3
20260505082050 72 0.0 0.0 0.00 0.00 0.00 972.4
20260505080549 70 0.0 0.0 0.00 0.00 0.00 972.5
20260505075050 72 0.0 0.0 0.00 0.00 0.00 972.6
20260505073554 70 0.0 0.0 0.00 0.00 0.00 972.7
20260505072100 66 0.0 0.0 0.00 0.00 0.00 972.8
20260505070609 67 0.0 0.0 0.00 0.00 0.00 972.9
20260505065121 64 0.0 0.0 0.00 0.00 0.00 973.0
20260505063635 59 0.0 0.0 0.00 0.00 0.00 973.1
20260505062150 59 0.0 0.0 0.00 0.00 0.00 973.1
20260505060706 59 0.0 0.0 0.00 0.00 0.00 973.2
20260505055232 58 0.0 0.0 0.00 0.00 0.00 973.2